Regional Weather Roundup
Issued by NWS

Home | Current Version | Previous Version | Graphics & Text | Print | Product List | Glossary On
Versions: 1 2 3 4 5 6 7 8 9 10 11 12 13 14 15 16 17 18 19 20 21 22 23 24 25 26 27 28 29 30 31 32 33 34 35 36 37 38 39 40 41 42 43 44 45 46 47 48 49 50
000
ASUS43 KIND 270600
RWRIN

WEATHER ROUNDUP FOR INDIANA
NATIONAL WEATHER SERVICE INDIANAPOLIS IN
200 AM EDT THU JUL 27 2017

NOTE: "FAIR" INDICATES FEW OR NO CLOUDS BELOW 12,000 FEET WITH NO
SIGNIFICANT WEATHER AND/OR OBSTRUCTIONS TO VISIBILITY.

* - STATION DOES NOT REPORT WEATHER SUCH AS PRECIPITATION OR FOG.

+ - STATION NOT QUALITY CONTROLLED BY THE NATIONAL WEATHER SERVICE.
    USE DATA WITH CAUTION...ESPECIALLY DEWPOINT AND RELATIVE
    HUMIDITY OBSERVATIONS.

INZ001>003-010>013-019-020-270700-
NORTHWEST INDIANA

CITY           SKY/WX    TMP DP  RH WIND       PRES   REMARKS
MICHIGAN CITY+ MOCLDY    73  68  83 CALM      29.97R
MONTICELLO +   CLOUDY    74  71  92 E3        29.94F
6HR MIN TEMP:  74; 6HR MAX TEMP:  78;

RENSSELAER +   CLOUDY    72  70  94 SW6       29.97S

$$

LMZ046-743>745-270700-
SOUTHERN LAKE MICHIGAN

STATION/POSITION TIME  TEMP    WIND        PRES    WAVE
                       AIR SEA DIR/SP/G            HT
                 (UTC) (F)     (DEG/KT/KT) (MB)    (FT)
BURNS HARBOR     0540   77     160/  7/ 11 1014.6F
MICHIGAN CITY    0530   76     140/  8/  9   N/A
5NW MICH CITY    0550   76 75  170/  6/  8   N/A     1

$$

INZ004-005-014>016-021>024-270700-
NORTH CENTRAL INDIANA

CITY           SKY/WX    TMP DP  RH WIND       PRES   REMARKS
GOSHEN         CLOUDY    72  65  78 CALM      29.97F
6HR MIN TEMP:  72; 6HR MAX TEMP:  79;

SOUTH BEND     CLOUDY    74  68  81 SE5       29.97F
6HR MIN TEMP:  74; 6HR MAX TEMP:  78;


$$

INZ006>009-017-018-025>027-270700-
NORTHEAST INDIANA

CITY           SKY/WX    TMP DP  RH WIND       PRES   REMARKS
FORT WAYNE     CLOUDY    71  66  84 SE5       29.98F
6HR MIN TEMP:  71; 6HR MAX TEMP:  78;

KENDALLVILLE + CLOUDY    71  67  87 S3        29.98F

$$

INZ028-029-035-036-043>045-051>053-270700-
WEST CENTRAL INDIANA

CITY           SKY/WX    TMP DP  RH WIND       PRES   REMARKS
GREENCASTLE +  CLOUDY    73  72  94 CALM      29.98F
LAFAYETTE      MOCLDY    75  72  90 NW12      29.95R
6HR MIN TEMP:  75; 6HR MAX TEMP:  80;

TERRE HAUTE    LGT RAIN  76  73  91 SW5       29.99R
6HR MIN TEMP:  76; 6HR MAX TEMP:  85; 6HR PCP: TRACE;


$$

INZ030>032-037>040-046>048-054>057-064-065-270700-
CENTRAL INDIANA

CITY           SKY/WX    TMP DP  RH WIND       PRES   REMARKS
GREENWOOD *+   CLOUDY   N/A N/A N/A SE3       29.99R
INDIANAPOLIS   NOT AVBL
-EAGLE CREEK   MOCLDY    78  71  79 MISG      29.97S
6HR MIN TEMP:  78; 6HR MAX TEMP:  83;

KOKOMO +       CLOUDY    72  70  93 SE6       29.98F
6HR MIN TEMP:  72; 6HR MAX TEMP:  77; 6HR PCP: TRACE;

MT COMFORT *+  CLOUDY    73  70  88 SE3       29.99S
SHELBYVILLE    CLOUDY    75  69  81 SE6       29.97F
6HR MIN TEMP:  73; 6HR MAX TEMP:  81;


$$

INZ033-034-041-042-049-050-058-059-270700-
EAST CENTRAL INDIANA

CITY           SKY/WX    TMP DP  RH WIND       PRES   REMARKS
MUNCIE         CLOUDY    75  68  78 S3        29.98F
6HR MIN TEMP:  73; 6HR MAX TEMP:  81;

RICHMOND +     CLOUDY    68  66  94 SE6       30.01F

$$

INZ060-061-067>069-081>083-085>088-270700-
SOUTHWEST INDIANA

CITY           SKY/WX    TMP DP  RH WIND       PRES   REMARKS
EVANSVILLE     PTCLDY    77  72  84 S3        29.99S
6HR MIN TEMP:  76; 6HR MAX TEMP:  80; 6HR PCP: TRACE;

HUNTINGBURG *+ CLOUDY    74  73  97 CALM      29.99F
6HR MIN TEMP:  74; 6HR MAX TEMP:  75;


$$

INZ062-063-066-070>080-084-089>092-270700-
SOUTH CENTRAL AND SOUTHEAST INDIANA

CITY           SKY/WX    TMP DP  RH WIND       PRES   REMARKS
BLOOMINGTON    HAZE      74  69  85 SW3       29.99S VSB 1
6HR MIN TEMP:  74; 6HR MAX TEMP:  84;

MADISON *+     MOCLDY    73  72  94 CALM      30.02S
SEYMOUR +      CLOUDY    73  70  88 CALM      29.99R

$$





USA.gov is the U.S. government's official web portal to all federal, state and local government web resources and services.